Location: Peterborough
(44.3091°N, 78.3197°W)
Time: 04:22:10
(UTC-04:00)

Tiros 1 despin weight - Pass Details

Date: 24 March 2023
Orbit: 586 x 632 km, 48.2° (Epoch: 08 June)

Event Time Altitude Azimuth Distance (km) Brightness Sun altitude
Rises 02:28:21 0° 288° (WNW) 2,835 - -41.9°
Reaches altitude 10° 02:30:39 10° 292° (WNW) 1,939 - -41.7°
Maximum altitude 02:35:04 62° 14° (NNE) 681 - -41.4°
Drops below altitude 10° 02:39:33 10° 95° (E) 1,966 - -41.0°
Sets 02:41:54 0° 99° (E) 2,879 - -40.8°
